Location: Newark
(39.8867°N, 94.3600°W)
Time: 19:16:08
(UTC+00:00)

N. Korean satellite - Pass Details

Date: 28 January 2020
Orbit: 456 x 505 km, 97.2° (Epoch: 19 February)

Event Time Altitude Azimuth Distance (km) Brightness Sun altitude
Rises 12:18:00 0° 7° (N) 2,551 10.2 -13.9°
Reaches altitude 10° 12:20:04 10° 4° (N) 1,675 9.2 -13.5°
Maximum altitude 12:23:37 59° 284° (WNW) 569 6.5 -12.8°
Drops below altitude 10° 12:27:12 10° 205° (SSW) 1,688 9.2 -12.2°
Sets 12:29:18 0° 201° (SSW) 2,572 10.2 -11.8°
